Weather in Partizan

Russia / Tula Oblast     53°56′57″N   38°05′49″E
temp.,
°C
wind,
m/s
gust,
m/s
humid.,
%
clouds,
%
prec.,
mm/h
press.,
hPa
HPBL,
m
19 april, mon
mon1900:00+7ene5991100 0.2 1019295
03:00+6ene5995100 0.5 1020368
06:00+6ene6109299 0.2 1020492
09:00+7ene71085100 0.3 1020640
12:00+5ene71192100 0.4 1021761
15:00+4ene71296100 3.4 1021878
18:00+4ne71297100 1.8 10201061
21:00+4ene81496100 3.7 1020805
20 april, tue
tue2000:00+3ene71396100 0.9 1020571
03:00+4ene71291100 1.4 1019631
06:00+4e71396100 1.1 1017642
09:00+4e71296100 1.1 1018607
12:00+3e61196100 0.0 1017496
15:00+4ene71296100 0.1 1015559
18:00+4ene81494100 0.1 1012676
21:00+2ene91897100 5.4 1007726
21 april, wed
wed2100:00+4e91896100 6.4 1002828
03:00+7ese81598100 8.4 999619
06:00+8se71495100 1.1 997595
09:00+7se51095100 1.3 998650
12:00+2wsw81496100 0.4 1002624
15:00+4sw81387100 0.6 10071053
18:00+5sw71289100 0.1 1011805
21:00+3ssw4109267 0.1 1013298
22 april, thu
thu2200:00+3sw5119096 0.1 1014368
03:00+4ssw499570 0.9 1014483
06:00+3ssw410957 0.0 1016264
09:00+8ssw587739 0.0 1017640
12:00+12sw686574 0.4 10171484
15:00+12ssw5869100 1.8 10171217
18:00+12ssw486930 0.6 1017569
21:00+8s4108638 0.7 1018193
23 april, fri
fri2300:00+8s512885 0.0 1018281
03:00+7s411915 0.0 1018241
06:00+6s411915 0.0 1018225
09:00+11s6117410 0.1 1017508
12:00+15s8115910 0.3 10161514
15:00+15s8105999 1.9 10141478
18:00+13s7126634 1.3 1013774
21:00+10sse6148091 1.8 1012400